TimeAKST,TemperatureF,Dew PointF,Humidity,Sea Level PressureIn,VisibilityMPH,Wind Direction,Wind SpeedMPH,Gust SpeedMPH,PrecipitationIn,Events,Conditions,WindDirDegrees,DateUTC
12:16 AM,30.2,28.4,93,30.07,4.0,Calm,Calm,-,N/A,,Mostly Cloudy,0,2014-01-03 09:16:00
12:36 AM,30.2,30.2,100,30.09,10.0,Calm,Calm,-,N/A,,Mostly Cloudy,0,2014-01-03 09:36:00
12:56 AM,30.2,28.4,93,30.10,5.0,Calm,Calm,-,N/A,,Mostly Cloudy,0,2014-01-03 09:56:00
1:16 AM,30.2,30.2,100,30.11,4.0,NNE,3.5,-,N/A,,Overcast,30,2014-01-03 10:16:00
1:36 AM,32.0,30.2,93,30.11,0.5,NNE,3.5,-,N/A,,Overcast,30,2014-01-03 10:36:00
1:56 AM,32.0,30.2,93,30.11,0.2,Calm,Calm,-,N/A,,Overcast,0,2014-01-03 10:56:00
2:16 AM,32.0,30.2,93,30.13,1.0,SW,3.5,-,N/A,,Overcast,230,2014-01-03 11:16:00
2:36 AM,32.0,30.2,93,30.14,4.0,SW,3.5,-,N/A,,Overcast,230,2014-01-03 11:36:00
2:56 AM,32.0,30.2,93,30.15,10.0,NNE,4.6,-,N/A,,Mostly Cloudy,20,2014-01-03 11:56:00
3:16 AM,32.0,30.2,93,30.16,10.0,North,3.5,-,N/A,,Overcast,10,2014-01-03 12:16:00
3:36 AM,32.0,30.2,93,30.16,10.0,Calm,Calm,-,N/A,,Overcast,0,2014-01-03 12:36:00
3:56 AM,32.0,32.0,100,30.17,10.0,Calm,Calm,-,N/A,,Overcast,0,2014-01-03 12:56:00
4:16 AM,32.0,30.2,93,30.17,10.0,Calm,Calm,-,N/A,,Overcast,0,2014-01-03 13:16:00
4:36 AM,32.0,30.2,93,30.18,8.0,Calm,Calm,-,N/A,,Overcast,0,2014-01-03 13:36:00
4:56 AM,32.0,30.2,93,30.18,10.0,North,3.5,-,N/A,,Overcast,350,2014-01-03 13:56:00
5:16 AM,33.8,32.0,93,30.20,10.0,Calm,Calm,-,N/A,,Overcast,0,2014-01-03 14:16:00
5:36 AM,33.8,30.2,87,30.20,9.0,Calm,Calm,-,N/A,,Overcast,0,2014-01-03 14:36:00
5:56 AM,33.8,32.0,93,30.22,10.0,Calm,Calm,-,N/A,,Overcast,0,2014-01-03 14:56:00
6:16 AM,33.8,32.0,93,30.23,10.0,Calm,Calm,-,N/A,,Overcast,0,2014-01-03 15:16:00
6:36 AM,33.8,32.0,93,30.23,5.0,North,3.5,-,N/A,,Overcast,360,2014-01-03 15:36:00
6:56 AM,33.8,32.0,93,30.23,10.0,Calm,Calm,-,N/A,,Overcast,0,2014-01-03 15:56:00
7:16 AM,33.8,32.0,93,30.24,9.0,Calm,Calm,-,N/A,,Overcast,0,2014-01-03 16:16:00
7:36 AM,33.8,32.0,93,30.24,5.0,Calm,Calm,-,N/A,,Overcast,0,2014-01-03 16:36:00
7:56 AM,33.8,32.0,93,30.25,10.0,NE,4.6,-,N/A,,Overcast,50,2014-01-03 16:56:00
8:16 AM,33.8,32.0,93,30.26,10.0,Calm,Calm,-,N/A,,Overcast,0,2014-01-03 17:16:00
8:36 AM,33.8,32.0,93,30.27,10.0,NW,3.5,-,N/A,,Overcast,310,2014-01-03 17:36:00
8:56 AM,33.8,32.0,93,30.28,10.0,NNW,4.6,-,N/A,,Overcast,330,2014-01-03 17:56:00
9:16 AM,33.8,32.0,93,30.28,5.0,NNW,4.6,-,N/A,,Overcast,340,2014-01-03 18:16:00
9:36 AM,33.8,32.0,93,30.30,4.0,NNW,5.8,-,N/A,,Overcast,330,2014-01-03 18:36:00
9:56 AM,33.8,32.0,93,30.31,8.0,NNW,5.8,-,N/A,,Overcast,340,2014-01-03 18:56:00
10:16 AM,33.8,32.0,93,30.31,10.0,NNW,5.8,-,N/A,,Overcast,340,2014-01-03 19:16:00
10:36 AM,33.8,32.0,93,30.32,9.0,NW,4.6,-,N/A,,Overcast,320,2014-01-03 19:36:00
10:56 AM,33.8,32.0,93,30.33,8.0,NW,5.8,-,N/A,,Overcast,320,2014-01-03 19:56:00
11:16 AM,33.8,32.0,93,30.33,1.8,NW,4.6,-,N/A,,Overcast,320,2014-01-03 20:16:00
11:36 AM,33.8,32.0,93,30.34,10.0,NNW,4.6,-,N/A,,Overcast,330,2014-01-03 20:36:00
11:56 AM,33.8,32.0,93,30.34,10.0,NNW,5.8,-,N/A,,Overcast,340,2014-01-03 20:56:00
12:16 PM,33.8,32.0,93,30.35,10.0,NW,4.6,-,N/A,,Overcast,320,2014-01-03 21:16:00
12:36 PM,33.8,32.0,93,30.35,10.0,NW,4.6,-,N/A,,Overcast,310,2014-01-03 21:36:00
12:56 PM,33.8,32.0,93,30.36,10.0,NW,5.8,-,N/A,,Overcast,320,2014-01-03 21:56:00
1:16 PM,33.8,32.0,93,30.36,10.0,NNW,4.6,-,N/A,,Overcast,340,2014-01-03 22:16:00
1:36 PM,33.8,32.0,93,30.36,10.0,North,3.5,-,N/A,,Overcast,350,2014-01-03 22:36:00
1:56 PM,33.8,32.0,93,30.36,10.0,NNW,4.6,-,N/A,,Overcast,340,2014-01-03 22:56:00
2:16 PM,33.8,32.0,93,30.37,10.0,NNW,4.6,-,N/A,,Overcast,330,2014-01-03 23:16:00
2:36 PM,33.8,32.0,93,30.38,9.0,NNW,4.6,-,N/A,,Overcast,340,2014-01-03 23:36:00
2:56 PM,33.8,32.0,93,30.38,9.0,NNW,4.6,-,N/A,,Overcast,330,2014-01-03 23:56:00
3:16 PM,33.8,32.0,93,30.38,10.0,NNW,4.6,-,N/A,,Overcast,330,2014-01-04 00:16:00
3:36 PM,33.8,32.0,93,30.38,10.0,NNW,3.5,-,N/A,,Overcast,330,2014-01-04 00:36:00
3:56 PM,33.8,32.0,93,30.38,10.0,NW,4.6,-,N/A,,Overcast,320,2014-01-04 00:56:00
4:16 PM,33.8,32.0,93,30.39,10.0,NW,4.6,-,N/A,,Overcast,320,2014-01-04 01:16:00
4:36 PM,33.8,32.0,93,30.39,10.0,Calm,Calm,-,N/A,,Overcast,0,2014-01-04 01:36:00
4:56 PM,33.8,32.0,93,30.39,10.0,Calm,Calm,-,N/A,,Overcast,0,2014-01-04 01:56:00
5:16 PM,33.8,32.0,93,30.39,10.0,Calm,Calm,-,N/A,,Overcast,0,2014-01-04 02:16:00
5:36 PM,33.8,32.0,93,30.40,7.0,NW,3.5,-,N/A,,Overcast,310,2014-01-04 02:36:00
5:56 PM,33.8,32.0,93,30.39,8.0,Calm,Calm,-,N/A,,Overcast,0,2014-01-04 02:56:00
6:16 PM,33.8,32.0,93,30.39,4.0,North,5.8,-,N/A,,Overcast,360,2014-01-04 03:16:00
6:36 PM,33.8,32.0,93,30.39,10.0,NNW,3.5,-,N/A,,Overcast,340,2014-01-04 03:36:00
6:56 PM,33.8,32.0,93,30.39,5.0,NNW,4.6,-,N/A,,Overcast,330,2014-01-04 03:56:00
7:16 PM,33.8,32.0,93,30.39,3.0,North,4.6,-,N/A,,Overcast,350,2014-01-04 04:16:00
7:36 PM,33.8,32.0,93,30.39,3.0,NNW,4.6,-,N/A,,Overcast,330,2014-01-04 04:36:00
7:56 PM,33.8,32.0,93,30.40,2.5,NNW,4.6,-,N/A,,Overcast,330,2014-01-04 04:56:00
8:16 PM,33.8,32.0,93,30.41,3.0,NNW,5.8,-,N/A,,Overcast,340,2014-01-04 05:16:00
8:36 PM,33.8,32.0,93,30.41,3.0,NNW,5.8,-,N/A,,Overcast,330,2014-01-04 05:36:00
8:56 PM,33.8,32.0,93,30.41,5.0,NW,5.8,-,N/A,,Overcast,320,2014-01-04 05:56:00
9:16 PM,33.8,32.0,93,30.42,5.0,NNW,4.6,-,N/A,,Overcast,330,2014-01-04 06:16:00
9:36 PM,33.8,32.0,93,30.42,2.5,NNW,4.6,-,N/A,,Overcast,340,2014-01-04 06:36:00
9:56 PM,33.8,32.0,93,30.42,2.0,Calm,Calm,-,N/A,,Overcast,0,2014-01-04 06:56:00
10:16 PM,33.8,32.0,93,30.42,3.0,Calm,Calm,-,N/A,,Overcast,0,2014-01-04 07:16:00
10:36 PM,33.8,32.0,93,30.42,4.0,Calm,Calm,-,N/A,,Overcast,0,2014-01-04 07:36:00
10:56 PM,33.8,32.0,93,30.43,10.0,NNW,5.8,-,N/A,,Overcast,330,2014-01-04 07:56:00
11:16 PM,33.8,32.0,93,30.43,10.0,NNW,4.6,-,N/A,,Overcast,340,2014-01-04 08:16:00
11:36 PM,33.8,32.0,93,30.43,10.0,NNW,6.9,-,N/A,,Overcast,340,2014-01-04 08:36:00
11:56 PM,33.8,32.0,93,30.43,10.0,NNW,6.9,-,N/A,,Overcast,340,2014-01-04 08:56:00